Lovelock, NV

4:58 AM PST on December 10, 2016 (GMT -0800)
Derby

Weather History for KLOL - November, 2012

Change the Weather History Date:

Friday, November 16, 2012

  Actual Average Record
Temperature  
Mean Temperature 46 °F -  
Max Temperature 55 °F 53 °F 66 °F (1981)
Min Temperature 36 °F 23 °F 6 °F (2014)
Degree Days  
Heating Degree Days 20    
Moisture  
Dew Point 29 °F    
Average Humidity 54    
Maximum Humidity 70    
Minimum Humidity 37    
Precipitation  
Precipitation 0.00 in - - ()
Sea Level Pressure  
Sea Level Pressure 30.00 in    
Wind  
Wind Speed 3 mph (SE)    
Max Wind Speed 8 mph    
Max Gust Speed 18 mph    
Visibility 10 miles    
Events      
Averages and records for this station are not official NWS values.
T = Trace of Precipitation, MM = Missing Value Source: NWS Daily Summary

Daily Weather History Graph

Daily Weather History Graph

Search for Another Location

Airport or City:

Trip Planner

Search our weather history database for the weather conditions in past years. The results will help you decide how hot, cold, wet, or windy it might be!

Date:

Astronomy

Nov. 16, 2012 Rise Set
Actual Time 6:41 AM PST 4:36 PM PST
Civil Twilight 6:12 AM PST 5:05 PM PST
Nautical Twilight 5:39 AM PST 5:38 PM PST
Astronomical Twilight 5:07 AM PST 6:10 PM PST
Moon 9:40 AM PST (11/16) 7:41 PM PST (11/16)
Length of Visible Light 10h 53m
Length of Day
9h 55m
Waxing Crescent, 12% of the Moon is Illuminated
Nov 16
Waxing Crescent
Nov 20
First Quarter
Nov 28
Full
Dec 6
Last Quarter
Dec 13
New

Hourly Weather History & Observations

Time (PST) Temp. Windchill Dew Point Humidity Pressure Visibility Wind Dir Wind Speed Gust Speed Precip Events Conditions
12:53 AM 44.1 °F - 25.0 °F 47% 29.99 in 10.0 mi Calm Calm - N/A   Overcast
1:53 AM 43.0 °F 40.3 °F 28.0 °F 56% 29.99 in 10.0 mi NE 4.6 mph - N/A   Overcast
2:53 AM 42.1 °F 39.2 °F 26.1 °F 53% 29.99 in 10.0 mi NNW 4.6 mph - N/A   Overcast
3:53 AM 39.9 °F 37.8 °F 26.1 °F 58% 29.99 in 10.0 mi South 3.5 mph - N/A   Overcast
4:53 AM 39.9 °F - 25.0 °F 55% 30.02 in 10.0 mi Calm Calm - N/A   Overcast
5:53 AM 37.0 °F 34.5 °F 24.1 °F 59% 30.02 in 10.0 mi SE 3.5 mph - N/A   Mostly Cloudy
6:53 AM 36.0 °F 32.1 °F 25.0 °F 64% 30.04 in 10.0 mi WNW 4.6 mph - N/A   Overcast
7:53 AM 39.0 °F - 28.0 °F 65% 30.05 in 10.0 mi Calm Calm - N/A   Clear
8:53 AM 45.0 °F - 28.0 °F 52% 30.05 in 10.0 mi Calm Calm - N/A   Scattered Clouds
9:53 AM 50.0 °F - 28.9 °F 44% 30.04 in 10.0 mi NE 5.8 mph - N/A   Overcast
10:53 AM 52.0 °F - 30.0 °F 43% 30.01 in 10.0 mi Calm Calm - N/A   Overcast
11:53 AM 53.1 °F - 28.9 °F 40% 29.99 in 10.0 mi SW 6.9 mph - N/A   Mostly Cloudy
12:53 PM 53.1 °F - 28.9 °F 40% 29.98 in 10.0 mi South 3.5 mph - N/A   Overcast
1:53 PM 55.0 °F - 28.9 °F 37% 29.97 in 10.0 mi West 4.6 mph - N/A   Scattered Clouds
2:53 PM 55.9 °F - 32.0 °F 40% 29.95 in 10.0 mi SSE 8.1 mph 18.4 mph N/A   Overcast
3:53 PM 54.0 °F - 32.0 °F 43% 29.97 in 10.0 mi SSE 4.6 mph - N/A   Mostly Cloudy
4:53 PM 50.0 °F - 34.0 °F 54% 29.98 in 10.0 mi East 6.9 mph - N/A   Partly Cloudy
5:53 PM 46.9 °F - 33.1 °F 59% 29.99 in 10.0 mi ESE 5.8 mph - N/A   Partly Cloudy
6:53 PM 46.0 °F 44.8 °F 32.0 °F 58% 30.00 in 10.0 mi NNE 3.5 mph - N/A   Mostly Cloudy
7:53 PM 44.1 °F 40.1 °F 30.9 °F 60% 30.00 in 10.0 mi WNW 6.9 mph - N/A   Partly Cloudy
8:53 PM 43.0 °F 38.8 °F 30.0 °F 60% 29.99 in 10.0 mi ESE 6.9 mph - N/A   Overcast
9:53 PM 42.1 °F - 32.0 °F 67% 29.98 in 10.0 mi Calm Calm - N/A   Overcast
10:53 PM 42.1 °F 38.4 °F 32.0 °F 67% 29.96 in 10.0 mi NW 5.8 mph - N/A   Mostly Cloudy
11:53 PM 42.1 °F 39.2 °F 33.1 °F 70% 29.94 in 10.0 mi SE 4.6 mph - N/A   Overcast